Location: Westminster
(33.3626°N, 96.4619°W)
Time: 20:36:08
(UTC+00:00)

CZ-4B R/B - Pass Details

Date: 03 December 2021
Orbit: 482 x 652 km, 97.9° (Epoch: 26 January)

Event Time Altitude Azimuth Distance (km) Brightness Sun altitude
Rises 12:01:07 0° 17° (NNE) 2,549 6.2 -14.9°
Reaches altitude 10° 12:03:12 10° 23° (NNE) 1,665 5.3 -14.5°
Maximum altitude 12:06:41 52° 100° (E) 608 3.5 -13.8°
Drops below altitude 10° 12:10:12 10° 178° (S) 1,682 5.6 -13.1°
Sets 12:12:19 0° 183° (S) 2,577 6.4 -12.7°
